Location: Laguna de la Cañada del Gallo
(40.3974°N, 5.2096°W)
Time: 12:02:29
(UTC+00:00)

CZ-4B R/B - Pass Details

Date: 18 April 2024
Orbit: 465 x 616 km, 97.9° (Epoch: 21 May)

Event Time Altitude Azimuth Distance (km) Brightness Sun altitude
Rises 19:39:55 0° 174° (S) 2,620 6.0 -7.4°
Reaches altitude 10° 19:42:04 10° 178° (S) 1,714 5.1 -7.8°
Maximum altitude 19:45:41 59° 259° (W) 574 3.2 -8.4°
Drops below altitude 10° 19:49:12 10° 339° (NNW) 1,661 5.9 -9.1°
Sets 19:51:15 0° 344° (NNW) 2,530 6.8 -9.4°
